Regional Weather Roundup
Issued by NWS Kansas City/Pleasant Hill, MO

Home | Current Version | Previous Version | Text Only | Print | Product List | Glossary On
Versions: 1 2 3 4 5 6 7 8 9 10 11 12 13 14 15 16 17 18 19 20 21 22 23 24 25 26 27 28 29 30 31 32 33 34 35 36 37 38 39 40 41 42 43 44 45 46 47 48 49 50
000
ASUS43 KEAX 300404
RWREAX

WEATHER ROUNDUP FOR EASTERN KANSAS AND NORTHWEST MISSOURI
NATIONAL WEATHER SERVICE KANSAS CITY/PLEASANT HILL MO
1100 PM CDT MON JUN 29 2015

KSZ040-057-103>105-MOZ028-029-037-043-300500-
...KANSAS CITY METROPOLITAN AREA...

CITY           SKY/WX    TMP DP  RH WIND       PRES   REMARKS
K.C. INTL      MOCLDY    77  63  61 W3        29.93R
K.C. DOWNTOWN  CLEAR     77  68  73 CALM      29.91R
LEES SUMMIT    CLEAR     73  63  70 SW3       29.93R
OLATHE - IXD   CLEAR     75  65  70 W3        29.94R
OLATHE - OJC   CLEAR     73  65  75 CALM      29.93R
LAWRENCE       CLEAR     69  66  90 CALM      29.93R

$$

MOZ001>008-011>017-020>025-030>033-038>040-044>046-053-054-300500-
...NORTHERN AND CENTRAL MISSOURI...

CITY           SKY/WX    TMP DP  RH WIND       PRES   REMARKS
ST. JOSEPH     CLEAR     73  68  84 CALM      29.92R
MOSBY            N/A     72  68  88 CALM      29.91S
HARRISONVILLE  CLEAR     72  68  88 CALM      29.95S
WHITEMAN AFB   CLEAR     71  67  87 SW2       29.91S
CLINTON        PTCLDY    73  70  88 CALM      29.92S
SEDALIA        CLEAR     75  65  70 W5        29.92S
WARSAW         FAIR      73  64  73 W5        29.93R
CHILLICOTHE      N/A     70  68  93 CALM      29.92R
KIRKSVILLE     CLEAR     67  64  90 W3        29.90R

$$

MOZ041-047>049-056>058-063>065-088>090-097-300500-
...EASTERN AND SOUTHERN MISSOURI...

CITY           SKY/WX    TMP DP  RH WIND       PRES   REMARKS
ST. LOUIS INTL MOCLDY    76  68  76 SW3       29.88R
SPIRIT OF STL  CLEAR     71  70  96 CALM      29.86S
COLUMBIA       CLEAR     74  67  78 W6        29.90R
JEFFERSON CITY PTCLDY    74  69  85 CALM      29.88S
MEXICO         CLEAR     73  73 100 W6        29.89R
ROLLA          CLEAR     70  66  87 SW6       29.91R
OSAGE BEACH    CLEAR     70  66  88 CALM      29.92S
SPRINGFIELD    CLEAR     71  65  81 SW6       29.96R
BRANSON        PTCLDY    73  63  68 CALM      30.00R
NEVADA         CLEAR     73  66  78 SW5       29.96R
JOPLIN         CLEAR     71  66  84 S3        29.97R
WEST PLAINS    CLEAR     70  64  81 CALM      29.97R
MALDEN         CLEAR     79  68  69 CALM      29.89S

$$

IAZ060-094-KSZ022-034>040-054-083-096-NEZ052-066-093-300500-
...KANSAS...SOUTHEAST NEBRASKA AND IOWA...

CITY           SKY/WX    TMP DP  RH WIND       PRES   REMARKS
TOPEKA         CLEAR     72  69  90 CALM      29.93R
MANHATTAN      CLEAR     69  64  84 CALM      29.95R
EMPORIA        PTCLDY    70  62  76 S6        29.96R
CHANUTE        CLEAR     70  65  84 CALM      29.96R
WICHITA        PTCLDY    75  61  61 S5        29.98R
OMAHA          CLOUDY    73  66  78 CALM      29.92R
LINCOLN        PTCLDY    72  64  76 CALM      29.95R
FALLS CITY     CLEAR     74  65  73 CALM      29.93R
LAMONI           N/A     71  65  81 W5        29.91R
DES MOINES     CLOUDY    73  64  73 W3        29.88R

$$



USA.gov is the U.S. government's official web portal to all federal, state and local government web resources and services.